Temp
18 16 19 18 18 17 17 15 15 15 15 15 15 15 16 16 16 16 16 16 16 16 17 17 16 16 16 16 16 15 15 14 14 14 14 14 14 14 14 14 13 12 14
18 15 19 18 18 16 16 15 14 15 15 14 15 16 16 16 16 16 16 16 17 17 17 17 16 16 16 16 16 15 15 14 14 14 13 13 13 13 13 14 14 14 14
17 15 18 18 17 15 15 16 15 14 14 16 16 16 16 16 17 17 17 17 17 16 17 16 16 16 15 15 15 14 14 14 13 13 13 13 13 13 13 13 13 13 13
17 15 15 18 17 15 14 15 15 15 15 16 16 16 16 17 17 17 17 17 17 17 17 16 16 16 15 15 14 14 14 13 12 13 13 13 11 13 12 13 13 13 13
17 16 15 17 17 16 15 14 15 15 15 16 16 16 16 17 17 17 17 17 17 17 16 16 16 16 16 15 14 13 12 12 12 13 12 12 11 12 12 12 12 13 12
17 16 15 17 16 15 15 15 15 15 16 16 15 15 17 17 17 17 17 17 17 17 16 16 16 16 16 15 14 12 12 12 12 12 11 11 11 10 11 12 12 12 12
17 16 15 16 15 16 15 15 15 15 15 15 15 16 16 17 17 17 17 17 17 16 16 16 16 16 14 13 13 12 12 12 12 12 11 12 11 11 11 11 11 11 11
17 16 15 15 16 15 15 15 15 15 15 15 15 16 16 16 16 16 16 16 16 16 16 16 16 15 13 13 13 12 11 11 12 11 11 11 11 10 10 10 10 10 10
16 16 15 15 15 15 15 14 14 14 15 15 15 16 16 16 16 16 16 16 16 16 16 15 15 13 13 12 12 12 11 11 11 11 11 10 10 9 10 10 10 10 10
15 15 15 14 15 15 15 14 14 14 14 15 15 16 16 16 16 16 16 16 16 15 15 14 13 13 12 12 11 11 11 11 11 11 9 9 9 9 8 9 8 8 10
14 14 15 14 15 15 14 14 13 14 14 15 15 16 15 15 15 15 15 15 15 15 14 13 13 12 12 11 11 11 11 11 11 10 9 8 9 8 8 8 8 8 8
14 14 15 14 14 14 14 13 13 13 13 14 15 15 14 12 13 11 15 15 14 14 13 12 12 11 11 11 11 10 11 11 11 9 8 8 8 8 8 8 7 8 8
14 14 15 14 14 14 14 13 12 11 12 12 12 14 12 11 11 12 14 14 13 12 10 11 11 10 10 9 10 11 11 11 10 9 8 8 8 8 7 8 7 8 7
14 14 14 14 14 14 14 13 12 11 11 11 11 11 11 11 11 11 12 12 12 10 10 10 10 10 10 10 10 10 10 10 10 8 8 7 8 7 7 7 7 7 7
13 13 14 14 14 14 14 13 13 12 11 11 11 11 11 11 11 11 11 11 11 10 10 10 10 10 10 10 10 10 10 10 9 8 8 9 9 8 7 7 7 8 7
13 14 13 13 13 14 14 13 12 12 11 11 11 11 11 11 11 11 11 10 10 10 10 10 10 10 10 10 10 10 10 9 9 8 8 9 9 9 9 9 9 9 7
14 13 12 13 13 13 15 12 12 11 11 11 11 11 12 12 11 11 11 11 12 10 10 10 10 10 10 10 10 9 9 9 8 8 7 9 9 9 9 9 9 9 7
14 13 13 12 13 13 15 12 11 11 11 11 12 12 11 13 13 12 11 11 12 12 10 10 9 9 9 9 9 9 9 8 8 8 7 7 7 8 9 9 9 9 9
13 12 13 12 12 12 13 11 11 11 11 11 11 12 11 12 13 12 12 12 13 13 12 11 10 9 9 9 9 8 8 8 7 7 7 8 8 8 9 8 8 9 8
13 12 12 12 10 11 10 10 10 10 10 10 10 10 11 12 12 12 11 12 12 12 11 9 9 9 9 9 8 8 7 7 7 7 7 8 8 8 8 8 8 8 8
12 12 12 11 12 11 9 7 9 10 10 10 10 11 12 12 12 12 12 12 12 12 12 11 9 9 8 8 7 6 6 6 6 6 6 7 8 8 8 8 8 7 7
13 12 11 11 10 10 9 8 8 9 9 10 9 10 11 11 12 12 12 12 12 11 11 11 11 9 8 8 7 7 6 6 6 6 6 6 7 7 7 7 7 7 7
10 11 12 11 12 10 10 8 7 7 8 8 9 10 11 11 11 11 12 11 11 11 11 11 11 11 9 8 8 9 8 9 6 5 6 6 5 6 6 7 7 7 7
10 10 10 11 11 10 11 11 9 9 9 12 11 11 11 11 11 11 11 11 11 11 11 11 11 10 10 9 8 9 9 9 8 5 5 6 6 5 6 6 6 6 6
10 10 10 10 10 10 10 9 10 10 11 10 12 11 11 11 11 11 11 11 11 11 11 11 11 10 10 10 9 9 9 9 9 8 6 5 5 5 6 5 5 5 5
10 10 10 10 10 10 10 10 10 10 11 10 12 11 11 11 12 11 11 11 11 10 11 10 10 10 10 10 9 9 9 8 8 8 8 6 6 5 5 4 4 4 4
Height
1470 1467 1470 1474 1477 1481 1485 1489 1492 1495 1498 1500 1503 1504 1505 1507 1509 1511 1512 1513 1514 1515 1515 1516 1517 1517 1518 1519 1519 1520 1521 1522 1523 1524 1526 1527 1526 1526 1527 1527 1528 1529 1529
1470 1468 1470 1474 1478 1482 1485 1488 1492 1495 1498 1499 1501 1504 1506 1508 1509 1511 1512 1514 1514 1515 1515 1516 1517 1517 1518 1519 1520 1521 1522 1523 1525 1527 1528 1528 1527 1527 1527 1528 1530 1529 1530
1469 1469 1470 1474 1478 1482 1486 1489 1492 1495 1497 1499 1501 1504 1506 1508 1509 1511 1512 1513 1514 1514 1515 1516 1517 1518 1519 1520 1521 1522 1523 1525 1527 1529 1529 1530 1529 1529 1530 1530 1530 1530 1530
1470 1470 1471 1474 1478 1482 1486 1489 1492 1495 1497 1499 1502 1504 1506 1508 1509 1511 1512 1514 1515 1516 1517 1517 1518 1518 1520 1521 1522 1523 1525 1528 1530 1531 1535 1533 1532 1532 1532 1532 1532 1532 1532
1471 1472 1473 1474 1478 1482 1486 1490 1493 1495 1497 1500 1502 1504 1506 1508 1509 1511 1512 1514 1515 1516 1517 1518 1519 1520 1521 1522 1523 1525 1527 1530 1532 1534 1533 1535 1534 1533 1533 1533 1533 1534 1534
1473 1473 1474 1475 1479 1482 1486 1489 1492 1495 1498 1500 1503 1505 1507 1508 1510 1511 1513 1514 1516 1517 1518 1519 1520 1521 1522 1523 1525 1527 1530 1532 1535 1535 1536 1536 1536 1536 1535 1535 1536 1536 1536
1474 1475 1473 1476 1479 1482 1485 1488 1492 1495 1498 1500 1503 1505 1506 1508 1510 1511 1513 1515 1516 1518 1519 1521 1522 1523 1524 1525 1527 1529 1532 1534 1536 1537 1538 1537 1538 1538 1538 1537 1537 1537 1537
1473 1475 1474 1476 1480 1482 1485 1488 1491 1495 1497 1500 1502 1504 1506 1508 1510 1512 1514 1515 1517 1518 1520 1521 1523 1524 1525 1527 1529 1531 1533 1536 1538 1539 1539 1538 1540 1539 1539 1538 1538 1538 1538
1472 1473 1474 1475 1479 1482 1485 1488 1490 1494 1497 1500 1502 1504 1505 1507 1510 1512 1514 1515 1517 1519 1520 1522 1523 1525 1527 1528 1530 1533 1535 1537 1540 1541 1542 1540 1541 1541 1540 1539 1538 1539 1538
1468 1470 1472 1475 1477 1480 1484 1488 1490 1493 1496 1499 1501 1503 1505 1507 1510 1512 1514 1515 1517 1519 1521 1522 1524 1526 1528 1530 1533 1535 1537 1539 1541 1540 1540 1541 1542 1542 1541 1540 1540 1539 1539
1464 1467 1470 1472 1474 1478 1482 1485 1489 1492 1495 1497 1500 1503 1505 1507 1509 1512 1513 1515 1517 1519 1521 1523 1525 1527 1529 1532 1535 1537 1539 1543 1543 1542 1541 1542 1543 1543 1542 1543 1542 1541 1541
1460 1464 1466 1468 1471 1474 1478 1482 1486 1489 1492 1495 1498 1501 1505 1507 1509 1512 1513 1515 1517 1520 1522 1524 1527 1529 1531 1533 1536 1539 1542 1544 1544 1543 1542 1544 1544 1544 1544 1544 1544 1544 1543
1457 1461 1461 1464 1467 1470 1472 1479 1484 1486 1489 1493 1496 1500 1506 1508 1508 1510 1512 1515 1518 1520 1523 1525 1528 1531 1535 1535 1538 1542 1543 1544 1545 1543 1544 1545 1546 1546 1546 1546 1545 1545 1545
1453 1455 1457 1459 1461 1464 1470 1476 1482 1484 1487 1491 1493 1498 1502 1504 1507 1509 1512 1515 1517 1521 1523 1525 1528 1533 1535 1537 1540 1542 1543 1545 1545 1543 1544 1545 1546 1547 1547 1547 1548 1548 1547
1446 1448 1452 1455 1456 1459 1467 1474 1480 1482 1486 1489 1492 1495 1498 1501 1505 1509 1513 1515 1517 1521 1523 1527 1530 1532 1535 1537 1539 1542 1544 1545 1546 1545 1544 1546 1547 1547 1547 1548 1548 1548 1548
1442 1443 1443 1451 1453 1457 1463 1471 1476 1480 1482 1486 1489 1492 1496 1499 1502 1506 1509 1513 1516 1519 1522 1526 1529 1532 1535 1538 1540 1541 1543 1545 1546 1545 1545 1547 1548 1548 1548 1548 1548 1548 1548
1437 1442 1443 1448 1446 1453 1459 1467 1472 1476 1477 1481 1485 1490 1494 1496 1499 1503 1507 1511 1514 1518 1521 1525 1528 1532 1535 1538 1540 1542 1544 1545 1546 1546 1546 1547 1548 1549 1549 1549 1549 1548 1549
1430 1430 1437 1433 1441 1449 1452 1460 1466 1471 1473 1477 1482 1486 1492 1494 1496 1501 1505 1509 1512 1515 1519 1522 1525 1529 1533 1537 1540 1542 1543 1545 1547 1548 1548 1548 1549 1549 1549 1549 1549 1549 1548
1424 1425 1427 1436 1441 1447 1447 1455 1463 1465 1469 1473 1479 1483 1489 1493 1495 1498 1502 1505 1509 1513 1517 1521 1524 1528 1532 1537 1540 1541 1543 1545 1547 1548 1547 1547 1548 1549 1549 1550 1549 1549 1548
1420 1419 1423 1430 1435 1426 1446 1448 1464 1465 1466 1470 1475 1480 1486 1490 1493 1495 1500 1503 1507 1511 1515 1520 1523 1527 1531 1535 1539 1541 1542 1544 1546 1547 1547 1548 1548 1549 1549 1549 1549 1548 1547
1419 1421 1422 1427 1430 1440 1445 1451 1462 1466 1464 1466 1472 1477 1483 1487 1491 1493 1497 1501 1504 1508 1512 1517 1521 1524 1528 1532 1535 1539 1541 1543 1545 1546 1547 1547 1547 1548 1548 1548 1548 1547 1546
1415 1418 1423 1429 1437 1439 1449 1455 1461 1468 1465 1464 1469 1476 1479 1484 1488 1491 1495 1499 1503 1506 1510 1514 1518 1522 1525 1528 1533 1537 1541 1544 1543 1545 1546 1546 1547 1547 1546 1547 1547 1546 1545
1414 1416 1419 1424 1429 1435 1438 1453 1455 1463 1462 1464 1467 1474 1478 1482 1486 1488 1492 1498 1501 1504 1508 1512 1516 1519 1522 1527 1531 1534 1537 1539 1541 1542 1543 1544 1546 1545 1544 1544 1545 1544 1543
1410 1415 1418 1424 1425 1427 1429 1437 1448 1456 1461 1463 1467 1472 1475 1478 1482 1486 1491 1495 1499 1502 1505 1510 1513 1517 1519 1523 1527 1530 1532 1534 1538 1541 1541 1541 1543 1543 1543 1543 1542 1542 1541
1411 1412 1416 1419 1420 1424 1428 1435 1438 1442 1452 1458 1465 1468 1471 1475 1479 1482 1487 1491 1496 1500 1503 1508 1511 1515 1518 1520 1525 1528 1530 1533 1534 1536 1536 1538 1540 1540 1541 1541 1540 1539 1538
1406 1407 1412 1415 1419 1423 1427 1429 1432 1439 1445 1451 1455 1457 1465 1470 1473 1477 1483 1488 1492 1497 1501 1505 1509 1513 1516 1518 1522 1525 1527 1531 1531 1534 1534 1535 1537 1537 1537 1539 1538 1538 1536
Wind_Speed
14 21 29 29 27 24 24 24 22 20 18 18 16 16 13 10 11 11 9 8 6 6 5 4 3 3 3 4 4 5 6 6 5 4 4 5 6 5 3 5 11 3 3
16 22 31 30 27 25 23 24 23 21 19 18 16 14 12 11 11 9 8 7 7 6 4 2 3 4 5 5 6 7 8 8 7 12 15 12 14 14 14 10 3 5 2
17 23 32 30 28 26 25 23 22 22 20 17 15 14 12 10 9 9 8 7 5 4 3 4 5 6 8 9 10 10 10 11 16 18 15 9 13 15 14 14 14 15 11
17 23 30 31 30 28 25 23 24 23 19 16 16 13 10 9 9 8 7 6 6 5 5 6 7 8 9 10 11 12 13 18 21 17 11 7 6 10 11 13 15 14 11
18 22 27 31 31 28 27 25 23 22 19 18 16 11 9 9 9 8 8 7 7 6 7 7 8 9 10 11 13 16 19 20 20 12 12 12 6 7 6 10 9 10 9
18 22 27 31 32 29 28 26 25 23 18 19 15 11 10 10 9 9 9 8 8 8 8 9 10 10 11 12 15 17 22 21 14 13 13 13 11 13 11 5 4 4 4
17 20 27 31 32 29 28 27 26 23 19 18 16 12 11 11 10 10 10 9 9 10 10 11 11 12 14 16 16 19 21 19 13 16 14 13 11 14 14 14 13 14 14
18 21 23 33 31 31 29 29 27 24 20 19 17 14 13 12 11 11 11 11 11 11 12 12 12 14 15 16 15 18 19 18 14 14 12 19 13 12 12 11 10 11 11
20 22 22 35 32 31 31 30 27 25 21 19 17 15 14 14 13 13 12 13 13 13 13 13 14 15 15 15 16 17 21 17 14 13 11 11 8 8 5 3 4 6 5
21 24 24 31 33 33 32 29 27 25 21 19 17 17 16 15 15 15 14 14 14 14 13 14 14 15 15 15 16 17 19 17 13 7 12 12 11 11 12 13 13 11 8
24 25 29 34 33 33 31 30 27 24 22 20 19 17 16 16 16 15 16 15 15 15 14 14 14 15 15 15 17 20 18 11 11 10 10 12 12 11 12 12 11 9 12
28 28 33 36 34 33 33 31 28 25 23 21 21 19 17 15 16 14 17 16 16 15 15 15 15 15 14 16 19 16 11 12 11 10 12 11 11 11 12 12 11 13 12
32 31 34 38 37 38 39 33 26 25 23 21 20 22 17 17 21 18 19 18 17 16 16 16 17 13 10 12 11 9 11 12 11 10 14 11 10 11 10 12 12 10 10
33 38 39 39 43 39 37 31 23 23 22 22 23 22 21 21 19 17 18 17 17 15 15 15 14 12 13 12 11 11 11 12 10 6 13 13 12 10 10 11 12 11 11
30 38 42 41 40 45 39 29 25 22 25 22 24 23 22 20 20 18 17 18 17 17 15 14 13 13 13 13 13 12 11 12 11 9 10 8 8 9 9 10 10 11 10
28 35 36 43 44 42 39 29 26 23 24 24 26 27 23 22 23 21 21 19 18 18 17 15 15 14 13 13 13 13 12 12 10 9 8 8 7 8 8 9 9 10 12
27 35 33 48 43 45 43 30 26 24 23 26 26 25 24 23 24 23 21 21 20 18 17 17 16 15 14 13 13 12 11 11 10 10 7 9 8 7 7 8 8 8 10
25 28 37 42 38 45 48 33 29 25 25 24 26 27 24 24 24 24 23 21 22 22 22 20 19 18 16 15 14 12 11 10 10 10 9 8 6 4 5 6 7 7 7
21 27 25 29 43 41 43 35 29 27 25 24 24 25 26 24 25 24 23 23 22 21 20 18 17 16 17 15 14 12 11 11 10 9 8 7 7 4 4 5 6 7 7
16 24 31 42 22 28 27 28 24 27 25 24 24 23 26 26 26 25 24 23 23 23 21 20 19 18 17 18 14 13 12 10 10 9 7 7 6 4 3 4 6 6 6
18 30 28 26 41 13 14 15 26 26 25 25 24 25 26 26 26 26 25 24 24 23 22 21 21 22 20 19 20 15 11 10 9 9 7 6 5 2 1 3 5 7 9
18 25 28 26 24 29 25 22 13 14 19 25 25 26 27 26 27 26 25 25 24 22 21 22 22 24 22 22 18 14 9 7 8 8 8 6 5 3 4 5 7 8 8
17 22 25 27 26 27 17 14 12 11 16 15 23 25 26 26 26 26 25 23 23 22 22 22 22 23 25 22 17 8 7 6 14 11 10 7 5 6 6 8 8 7 8
21 27 31 32 24 27 24 33 27 11 22 26 27 29 30 28 27 26 24 24 23 22 22 22 22 23 21 24 25 18 11 10 7 8 11 11 8 8 6 7 8 9 9
23 29 34 28 27 26 28 33 28 37 15 31 35 35 34 31 28 27 26 26 24 24 23 23 22 23 19 19 22 20 12 10 12 7 11 13 10 10 7 7 8 9 11
22 30 32 35 34 32 30 31 33 45 32 40 45 43 38 35 32 30 28 27 26 25 25 23 21 20 20 19 20 15 12 8 10 8 9 12 7 8 8 8 7 8 11
Wind_Direction
182 193 184 180 178 174 173 167 168 167 167 167 171 180 179 169 166 168 172 185 209 240 249 239 217 186 163 153 148 152 150 141 138 111 79 63 62 57 83 102 80 65 103
185 190 184 184 178 174 176 173 171 171 177 174 177 179 180 176 175 181 198 216 225 227 216 178 140 132 130 131 128 131 135 135 120 90 75 89 78 78 76 86 91 59 83
185 187 185 186 179 173 182 184 170 173 177 177 180 175 177 179 185 196 204 207 204 195 170 153 145 135 132 125 124 122 119 112 101 98 84 78 96 90 87 84 75 72 68
181 183 183 186 180 177 179 174 173 182 187 182 176 174 180 181 185 191 195 191 183 173 160 150 134 130 123 123 124 123 116 110 99 88 88 72 85 103 97 103 89 87 88
183 186 184 186 182 182 182 178 180 187 192 182 178 180 182 182 185 186 181 177 170 162 148 140 131 130 126 125 125 112 108 100 91 100 116 103 65 124 124 105 110 109 110
193 189 195 189 181 185 186 184 185 189 191 186 186 189 186 186 185 181 172 167 162 154 148 141 138 133 131 129 122 117 111 98 94 89 85 90 98 77 80 108 101 111 93
203 195 204 192 181 188 189 187 191 193 193 193 193 195 191 188 183 174 171 165 158 153 150 145 142 139 131 132 126 123 112 101 101 93 102 106 84 88 91 92 93 91 81
208 197 207 193 187 192 193 189 195 195 198 198 198 200 194 188 179 173 169 163 156 153 150 148 143 140 136 136 131 126 113 98 96 101 110 103 105 94 108 116 118 112 113
210 198 202 189 191 196 195 194 196 197 199 200 201 201 193 187 177 172 169 163 157 155 151 148 144 141 138 138 133 124 113 112 103 101 101 110 109 89 121 144 134 139 134
206 199 198 189 194 198 196 198 199 198 200 202 203 201 192 184 176 172 170 163 159 157 152 147 145 140 139 140 133 122 107 92 102 124 106 109 98 88 83 77 72 66 90
202 197 198 198 195 196 195 196 203 198 201 203 204 199 187 182 174 166 172 167 161 157 152 149 151 145 142 141 127 108 96 104 106 99 105 101 96 88 83 79 75 70 67
203 202 204 202 193 192 190 194 199 197 200 199 199 190 172 174 172 172 173 171 162 157 151 154 144 139 139 140 129 101 118 114 111 107 106 100 95 93 85 79 67 64 60
212 206 211 203 196 190 197 197 191 195 192 187 187 179 170 169 178 181 172 168 162 157 152 152 145 118 144 145 121 133 128 118 117 132 110 108 94 86 77 69 63 66 67
219 209 208 203 197 189 198 193 187 191 183 187 189 173 176 183 170 172 165 165 163 149 162 161 141 159 152 148 148 141 130 127 126 126 127 121 109 98 85 75 70 67 55
232 215 216 201 189 199 200 177 188 187 184 184 184 181 181 180 170 171 169 166 164 165 164 159 164 159 150 148 143 138 133 131 128 139 153 132 110 105 92 81 70 69 60
242 228 218 205 198 202 198 181 186 188 183 187 186 185 181 183 179 173 176 171 170 166 165 164 161 157 155 148 144 138 136 135 130 127 133 127 108 99 90 79 70 65 61
250 232 243 200 202 201 204 183 186 187 183 191 189 186 184 187 183 181 176 178 173 167 164 159 160 161 154 154 147 142 133 134 135 131 117 125 113 95 79 72 65 60 66
248 234 215 213 209 203 205 184 182 184 183 187 189 191 186 190 187 184 184 178 178 176 172 167 167 160 156 154 152 148 146 138 138 138 133 133 117 93 85 70 58 48 39
251 229 216 223 210 199 193 184 181 180 181 184 187 190 191 189 189 187 187 187 185 182 179 175 161 159 155 159 158 151 146 141 144 142 151 150 146 135 98 61 39 25 16
249 229 213 226 245 182 179 165 176 181 172 181 187 187 194 195 192 188 189 189 184 183 179 175 169 162 162 162 155 149 149 148 149 151 156 165 164 150 77 21 2 358 351
223 207 208 209 217 246 171 149 174 176 174 184 189 192 196 197 194 193 194 191 189 186 188 182 176 167 164 163 162 151 148 150 160 167 168 182 179 178 332 336 336 334 331
224 218 203 205 207 214 219 201 163 182 181 185 188 193 196 199 198 197 197 196 193 190 188 188 186 174 176 178 165 153 148 163 177 170 181 189 202 247 292 312 322 324 323
211 216 203 204 197 209 179 174 166 196 189 185 193 196 197 200 200 200 199 198 197 197 194 194 191 191 184 169 176 158 162 188 177 197 196 192 208 248 285 308 312 318 321
209 203 195 189 206 212 210 232 223 207 238 227 206 204 201 200 200 200 200 199 200 198 197 196 194 194 194 190 181 191 169 184 174 171 210 213 215 255 274 296 302 312 319
209 208 200 208 202 203 207 198 206 201 270 238 217 210 208 204 201 199 200 199 199 199 199 198 195 194 199 201 202 203 203 211 182 190 176 193 214 229 256 261 288 297 317
205 213 218 217 214 206 196 195 203 210 214 216 215 209 208 205 203 202 201 202 201 202 201 199 198 198 197 202 209 213 214 197 195 186 166 182 183 230 258 277 285 297 314